Torna al catalogo

SCOUT G-1 DEB

AttivoPO
NORAD 19181·DEBRIS·🇺🇸 United States

Lanciato Apr 26, 1988 da Vandenberg Space Force Base

Loading…

Prossimi Passaggi (prossime 24 ore)

TLE

AggiornatoSource: Space-Track

Epoca: Sep 14, 2026, 13:02 UTC

1 19181U 88033G   26257.54368981  .00000086  00000-0  16042-3 0  9998
2 19181  89.8311 276.3066 0248060 223.6689 292.5110 13.22093543849102

Traccia SCOUT G-1 DEB in tempo reale con AllMySat

Download on the App Store